User: anonymous   Login
Location: Waning Moon II Observatory
(30.3730°N, 89.7620°W)
Time: 04:18:28
(UTC-06:00)
Language:

Meteor 1-21 - Orbit

View from above orbital plane
View from above orbital plane
View from above satellite
View from above satellite

Ground track
Ground track

The orbit data is extracted from the following two-line orbital elements,

1 07714U 75023A   15027.19030146  .00000029  00000-0  96836-5 0  9915
2 07714 081.2125 320.6755 0033173 193.5574 275.3501 14.07857631362498
Epoch (UTC): 27 January 2015 04:34:02
Eccentricity: 0.0033173
inclination: 81.2125°
perigee height: 842 km
apogee height: 891 km
right ascension of ascending node: 320.6755°
argument of perigee: 193.5574°
revolutions per day: 14.07857631
mean anomaly at epoch: 275.3501°
orbit number at epoch: 36249

The dashed part of the orbit path shows where the satellite is in the earth's shadow,  

DLR